Regional Weather Roundup
Issued by NWS Binghamton, NY

Home | Current Version | Previous Version | Text Only | Print | Product List | Glossary On
Versions: 1 2 3 4 5 6 7 8 9 10 11 12 13 14 15 16 17 18 19 20 21 22 23 24 25 26 27 28 29 30 31 32 33 34 35 36 37 38 39 40 41 42 43 44 45 46 47 48 49 50
000
ASUS41 KBGM 281310
RWRBGM
RWRBGM
BINGHAMTON REGIONAL WEATHER ROUNDUP
NATIONAL WEATHER SERVICE BINGHAMTON NY
800 AM EST SUN DEC 28 2014

Note: "fair" indicates few or no clouds below 12,000 feet with no
significant weather and/or obstructions to visibility.

* = Station(s) that does not report precipitation, such as rain,
snow, etc, also no thunder or fog.

!NYZ009-015>018-022>025-036-037-044>046-055>057-062-281400
...CENTRAL NEW YORK...

CITY           SKY/WX    TMP DP  RH WIND       PRES   REMARKS
BINGHAMTON     FOG       41  41 100 W7        29.85S VSB 1/2
CORTLAND       CLOUDY    39  37  93 W8        29.90R WCI  34
DANSVILLE      CLOUDY    39  34  82 NW6       29.95R WCI  35
ELMIRA         CLOUDY    44  39  82 NW13      29.90R
ITHACA         CLOUDY    40  38  93 MISG      29.91R
HAMILTON       CLOUDY    41  37  87 NW8       29.88R
MONTICELLO     CLOUDY    39  39 100 NW5       29.85F
NORWICH        CLOUDY    41  37  87 NW6       29.88R
ONEONTA        DRIZZLE   41  39  93 W9        29.82S
PENN YAN       CLOUDY    40  33  76 W13G20    29.92R WCI  32
ROME           LGT RAIN  40  38  93 W14       29.89R WCI  32
SIDNEY         DRIZZLE   43  43 100 W3        29.85F
SYRACUSE       CLOUDY    40  37  89 W13       29.91R WCI  32
$$

!PAZ038>040-043-044-047-048-072-281400
...NORTHEAST PENNSYLVANIA...

CITY           SKY/WX    TMP DP  RH WIND       PRES   REMARKS
HAZLETON       CLOUDY    45  37  76 W6        29.92R
SCRANTON       CLOUDY    43  37  79 S7        29.89R
TOWANDA*       CLOUDY    43  43 100 CALM      29.89S
$$
&&
KEY
WCI = WIND CHILL INDEX
VSB = VISIBILITY
HX  = HEAT INDEX
$$



USA.gov is the U.S. government's official web portal to all federal, state and local government web resources and services.